• en Suisse
  • Liste des pays
  • À 7 jours
  • Température de l'eau
  • Carte satellitaire
  • Carte météo
  • Widgets météo
  • user-avatar
    Se connecter

    Météo par heure à Lewis

    Ce jour, 15 Août, Mercredi

    Heure Température Précipitation Vent Pression Humidité
    00:00 +12°C° 0 mm 7 m/s 745 mmHg 89%
    01:00 +12°C° 0,1 mm 7 m/s 744 mmHg 89%
    02:00 +12°C° 0,1 mm 7 m/s 744 mmHg 89%
    03:00 +12°C° 0,1 mm 7 m/s 744 mmHg 89%
    04:00 +12°C° 0,1 mm 7 m/s 744 mmHg 89%
    05:00 +12°C° 0,1 mm 7 m/s 743 mmHg 88%
    06:00 +12°C° 0 mm 7 m/s 743 mmHg 88%
    07:00 +12°C° 0 mm 7 m/s 743 mmHg 87%
    08:00 +12°C° 0 mm 8 m/s 743 mmHg 86%
    09:00 +12°C° 0 mm 9 m/s 742 mmHg 85%
    10:00 +12°C° 0,1 mm 9 m/s 742 mmHg 85%
    11:00 +12°C° 0,1 mm 10 m/s 742 mmHg 85%
    12:00 +12°C° 0 mm 11 m/s 742 mmHg 85%
    13:00 +12°C° 0,6 mm 12 m/s 741 mmHg 84%
    14:00 +12°C° 0,6 mm 13 m/s 741 mmHg 84%
    15:00 +12°C° 0,6 mm 13 m/s 741 mmHg 84%
    16:00 +12°C° 0,2 mm 12 m/s 740 mmHg 83%
    17:00 +12°C° 0,2 mm 11 m/s 740 mmHg 82%
    18:00 +12°C° 0,2 mm 10 m/s 740 mmHg 81%
    19:00 +12°C° 0 mm 10 m/s 740 mmHg 80%
    20:00 +11°C° 0 mm 10 m/s 740 mmHg 80%
    21:00 +11°C° 0 mm 9 m/s 740 mmHg 79%
    22:00 +11°C° 0 mm 10 m/s 740 mmHg 79%
    23:00 +11°C° 0 mm 10 m/s 740 mmHg 79%

    Demain, 16 Août, Jeudi

    Heure Température Précipitation Vent Pression Humidité
    00:00 +11°C° 0 mm 10 m/s 740 mmHg 79%
    01:00 +11°C° 0,1 mm 10 m/s 740 mmHg 80%
    02:00 +11°C° 0,1 mm 10 m/s 740 mmHg 81%
    03:00 +11°C° 0,1 mm 10 m/s 739 mmHg 82%
    04:00 +11°C° 0,2 mm 10 m/s 739 mmHg 82%
    05:00 +11°C° 0,2 mm 9 m/s 739 mmHg 82%
    06:00 +11°C° 0,2 mm 9 m/s 739 mmHg 81%
    07:00 +11°C° 0,2 mm 9 m/s 739 mmHg 81%
    08:00 +12°C° 0,2 mm 8 m/s 739 mmHg 81%
    09:00 +12°C° 0,2 mm 8 m/s 740 mmHg 81%
    10:00 +12°C° 0,3 mm 8 m/s 740 mmHg 79%
    11:00 +13°C° 0,3 mm 8 m/s 740 mmHg 78%
    12:00 +14°C° 0,3 mm 7 m/s 741 mmHg 76%
    13:00 +13°C° 0,2 mm 8 m/s 741 mmHg 76%
    14:00 +13°C° 0,2 mm 8 m/s 741 mmHg 76%
    15:00 +13°C° 0,2 mm 8 m/s 742 mmHg 77%
    16:00 +13°C° 0,1 mm 8 m/s 742 mmHg 78%
    17:00 +12°C° 0,1 mm 8 m/s 742 mmHg 79%
    18:00 +12°C° 0,1 mm 8 m/s 742 mmHg 80%
    19:00 +12°C° 0,2 mm 8 m/s 743 mmHg 81%
    20:00 +11°C° 0,2 mm 9 m/s 743 mmHg 82%
    21:00 +11°C° 0,2 mm 9 m/s 743 mmHg 82%
    22:00 +11°C° 0,3 mm 9 m/s 744 mmHg 81%
    23:00 +11°C° 0,3 mm 9 m/s 744 mmHg 80%

    Après-demain, 17 Août, Vendredi

    Heure Température Précipitation Vent Pression Humidité
    00:00 +11°C° 0,3 mm 9 m/s 744 mmHg 79%
    01:00 +11°C° 0,1 mm 9 m/s 744 mmHg 78%
    02:00 +11°C° 0,1 mm 10 m/s 744 mmHg 77%
    03:00 +11°C° 0,1 mm 10 m/s 744 mmHg 76%
    04:00 +11°C° 0,1 mm 9 m/s 744 mmHg 76%
    05:00 +11°C° 0,1 mm 9 m/s 745 mmHg 76%
    06:00 +11°C° 0,1 mm 9 m/s 745 mmHg 76%
    07:00 +11°C° 0,1 mm 9 m/s 745 mmHg 77%
    08:00 +11°C° 0,1 mm 9 m/s 745 mmHg 78%
    09:00 +11°C° 0,1 mm 9 m/s 745 mmHg 79%
    10:00 +12°C° 0,1 mm 9 m/s 745 mmHg 82%
    11:00 +12°C° 0,1 mm 10 m/s 744 mmHg 84%
    12:00 +12°C° 0,1 mm 10 m/s 744 mmHg 87%
    13:00 +12°C° 0,2 mm 11 m/s 743 mmHg 89%
    14:00 +12°C° 0,2 mm 11 m/s 743 mmHg 90%
    15:00 +13°C° 0,2 mm 11 m/s 742 mmHg 92%
    16:00 +13°C° 0,2 mm 11 m/s 742 mmHg 92%
    17:00 +13°C° 0,2 mm 11 m/s 742 mmHg 92%
    18:00 +13°C° 0,2 mm 11 m/s 741 mmHg 92%
    19:00 +12°C° 0,1 mm 12 m/s 742 mmHg 89%
    20:00 +10°C° 0,1 mm 12 m/s 742 mmHg 86%
    21:00 +10°C° 0,1 mm 12 m/s 742 mmHg 83%
    22:00 +10°C° 0,1 mm 13 m/s 742 mmHg 81%
    23:00 +10°C° 0,1 mm 13 m/s 742 mmHg 80%

    18 Août, Samedi

    Heure Température Précipitation Vent Pression Humidité
    00:00 +10°C° 0,1 mm 13 m/s 742 mmHg 79%
    01:00 +10°C° 0,1 mm 14 m/s 742 mmHg 79%
    02:00 +10°C° 0,1 mm 14 m/s 742 mmHg 78%
    03:00 +10°C° 0,1 mm 14 m/s 743 mmHg 77%
    04:00 +10°C° 0,1 mm 14 m/s 743 mmHg 77%
    05:00 +10°C° 0,1 mm 14 m/s 743 mmHg 76%
    06:00 +10°C° 0,1 mm 14 m/s 743 mmHg 76%
    07:00 +10°C° 0,1 mm 13 m/s 744 mmHg 76%
    08:00 +10°C° 0,1 mm 13 m/s 744 mmHg 76%
    09:00 +10°C° 0,1 mm 12 m/s 745 mmHg 77%
    10:00 +12°C° 0,1 mm 11 m/s 746 mmHg 77%
    11:00 +12°C° 0,1 mm 11 m/s 746 mmHg 77%
    12:00 +12°C° 0,1 mm 10 m/s 747 mmHg 78%
    13:00 +12°C° 0,1 mm 9 m/s 748 mmHg 78%
    14:00 +12°C° 0,1 mm 8 m/s 749 mmHg 78%
    15:00 +14°C° 0,1 mm 7 m/s 749 mmHg 78%
    16:00 +13°C° 0 mm 6 m/s 750 mmHg 79%
    17:00 +13°C° 0 mm 5 m/s 750 mmHg 80%
    18:00 +13°C° 0 mm 5 m/s 751 mmHg 80%
    19:00 +13°C° 0 mm 4 m/s 751 mmHg 82%
    20:00 +12°C° 0 mm 4 m/s 751 mmHg 83%
    21:00 +12°C° 0 mm 4 m/s 751 mmHg 84%
    22:00 +12°C° 0 mm 3 m/s 751 mmHg 84%
    23:00 +11°C° 0 mm 3 m/s 751 mmHg 85%

    19 Août, Dimanche

    Heure Température Précipitation Vent Pression Humidité
    00:00 +11°C° 0 mm 3 m/s 751 mmHg 85%
    01:00 +11°C° 0 mm 3 m/s 751 mmHg 86%
    02:00 +12°C° 0 mm 2 m/s 751 mmHg 87%
    03:00 +12°C° 0 mm 2 m/s 751 mmHg 88%
    04:00 +12°C° 0,1 mm 2 m/s 751 mmHg 88%
    05:00 +11°C° 0,1 mm 3 m/s 751 mmHg 88%
    06:00 +11°C° 0,1 mm 3 m/s 751 mmHg 88%
    07:00 +12°C° 0 mm 3 m/s 751 mmHg 85%
    08:00 +12°C° 0 mm 3 m/s 751 mmHg 83%
    09:00 +13°C° 0 mm 4 m/s 751 mmHg 80%
    10:00 +14°C° 0 mm 3 m/s 751 mmHg 76%
    11:00 +16°C° 0 mm 3 m/s 750 mmHg 72%
    12:00 +17°C° 0 mm 2 m/s 750 mmHg 68%
    13:00 +18°C° 0 mm 2 m/s 750 mmHg 69%
    14:00 +19°C° 0 mm 1 m/s 750 mmHg 69%
    15:00 +19°C° 0 mm 1 m/s 750 mmHg 69%
    16:00 +19°C° 0,5 mm 1 m/s 750 mmHg 72%
    17:00 +17°C° 0,5 mm 2 m/s 749 mmHg 74%
    18:00 +17°C° 0,5 mm 2 m/s 749 mmHg 76%
    19:00 +16°C° 1,2 mm 3 m/s 749 mmHg 82%
    20:00 +15°C° 1,2 mm 4 m/s 749 mmHg 87%
    21:00 +14°C° 1,2 mm 4 m/s 748 mmHg 92%
    22:00 +14°C° 1,2 mm 5 m/s 748 mmHg 94%
    23:00 +14°C° 1,2 mm 5 m/s 748 mmHg 95%

    20 Août, Lundi

    Heure Température Précipitation Vent Pression Humidité
    00:00 +14°C° 1,2 mm 5 m/s 747 mmHg 97%
    01:00 +14°C° 0,2 mm 5 m/s 747 mmHg 97%
    02:00 +14°C° 0,2 mm 5 m/s 747 mmHg 97%
    03:00 +14°C° 0,2 mm 5 m/s 747 mmHg 97%
    04:00 +13°C° 0 mm 6 m/s 748 mmHg 95%
    05:00 +13°C° 0 mm 6 m/s 748 mmHg 93%
    06:00 +13°C° 0 mm 6 m/s 749 mmHg 92%
    07:00 +13°C° 0 mm 6 m/s 750 mmHg 89%
    08:00 +13°C° 0 mm 5 m/s 750 mmHg 87%
    09:00 +13°C° 0 mm 5 m/s 751 mmHg 84%
    10:00 +13°C° 0 mm 5 m/s 751 mmHg 82%
    11:00 +13°C° 0 mm 4 m/s 752 mmHg 80%
    12:00 +13°C° 0 mm 4 m/s 752 mmHg 78%
    13:00 +13°C° 0 mm 4 m/s 752 mmHg 76%
    14:00 +14°C° 0 mm 4 m/s 753 mmHg 75%
    15:00 +14°C° 0 mm 4 m/s 753 mmHg 73%
    16:00 +14°C° 0 mm 4 m/s 753 mmHg 74%
    17:00 +13°C° 0 mm 4 m/s 753 mmHg 74%
    18:00 +13°C° 0 mm 4 m/s 753 mmHg 75%
    19:00 +13°C° 0 mm 4 m/s 753 mmHg 78%
    20:00 +13°C° 0 mm 4 m/s 753 mmHg 81%
    21:00 +12°C° 0 mm 4 m/s 753 mmHg 84%
    22:00 +12°C° 0 mm 4 m/s 753 mmHg 85%
    23:00 +12°C° 0 mm 4 m/s 753 mmHg 86%
    Voir plus